• In Moldova, Republic
  • List of Countries
  • For 7 days
  • Water Temperature
  • Satellite Maps
  • Weather Map
  • Weather Widgets
  • user-avatar
    Login

    Hourly Weather Szolnok

    Today, 24 March, Sunday

    Time Temperature Precipitation Wind Pressure Humidity
    00:00 +12°C° 0 mm 1 mps 760 mmHg 58%
    01:00 +11°C° 0 mm 1 mps 760 mmHg 60%
    02:00 +11°C° 0 mm 1 mps 760 mmHg 64%
    03:00 +11°C° 0 mm 1 mps 760 mmHg 68%
    04:00 +10°C° 0 mm 1 mps 760 mmHg 72%
    05:00 +11°C° 0 mm 1 mps 760 mmHg 73%
    06:00 +11°C° 0 mm 1 mps 760 mmHg 74%
    07:00 +12°C° 0 mm 1 mps 759 mmHg 75%
    08:00 +13°C° 0 mm 1 mps 759 mmHg 68%
    09:00 +15°C° 0 mm 1 mps 759 mmHg 62%
    10:00 +18°C° 0 mm 1 mps 759 mmHg 55%
    11:00 +19°C° 0 mm 1 mps 759 mmHg 51%
    12:00 +20°C° 0 mm 1 mps 759 mmHg 48%
    13:00 +20°C° 0 mm 2 mps 758 mmHg 44%
    14:00 +20°C° 0 mm 2 mps 757 mmHg 43%
    15:00 +20°C° 0 mm 2 mps 757 mmHg 42%
    16:00 +21°C° 0 mm 2 mps 756 mmHg 41%
    17:00 +20°C° 0 mm 1 mps 756 mmHg 46%
    18:00 +19°C° 0 mm 1 mps 756 mmHg 50%
    19:00 +16°C° 0 mm 1 mps 756 mmHg 55%
    20:00 +16°C° 0 mm 1 mps 755 mmHg 56%
    21:00 +15°C° 0 mm 1 mps 755 mmHg 58%
    22:00 +15°C° 0 mm 2 mps 755 mmHg 59%
    23:00 +14°C° 0 mm 2 mps 755 mmHg 62%

    Tomorrow, 25 March, Monday

    Time Temperature Precipitation Wind Pressure Humidity
    00:00 +13°C° 0 mm 2 mps 754 mmHg 65%
    01:00 +13°C° 0 mm 2 mps 754 mmHg 68%
    02:00 +13°C° 0 mm 2 mps 754 mmHg 69%
    03:00 +13°C° 0 mm 2 mps 753 mmHg 71%
    04:00 +12°C° 0 mm 3 mps 753 mmHg 73%
    05:00 +12°C° 0 mm 3 mps 753 mmHg 72%
    06:00 +12°C° 0 mm 4 mps 753 mmHg 71%
    07:00 +12°C° 0 mm 5 mps 753 mmHg 70%
    08:00 +13°C° 0 mm 5 mps 753 mmHg 62%
    09:00 +14°C° 0 mm 5 mps 753 mmHg 54%
    10:00 +16°C° 0 mm 5 mps 753 mmHg 46%
    11:00 +15°C° 0 mm 5 mps 752 mmHg 46%
    12:00 +15°C° 0 mm 5 mps 752 mmHg 46%
    13:00 +15°C° 0 mm 5 mps 751 mmHg 46%
    14:00 +14°C° 0 mm 5 mps 751 mmHg 47%
    15:00 +14°C° 0 mm 5 mps 751 mmHg 47%
    16:00 +13°C° 0 mm 4 mps 751 mmHg 48%
    17:00 +13°C° 0.1 mm 4 mps 751 mmHg 50%
    18:00 +12°C° 0.1 mm 4 mps 752 mmHg 53%
    19:00 +11°C° 0.1 mm 4 mps 752 mmHg 55%
    20:00 +11°C° 0 mm 4 mps 752 mmHg 51%
    21:00 +9°C° 0 mm 5 mps 753 mmHg 48%
    22:00 +9°C° 0 mm 5 mps 754 mmHg 45%
    23:00 +8°C° 0 mm 5 mps 754 mmHg 46%

    Day after tomorrow, 26 March, Tuesday

    Time Temperature Precipitation Wind Pressure Humidity
    00:00 +8°C° 0 mm 5 mps 755 mmHg 48%
    01:00 +7°C° 0 mm 5 mps 755 mmHg 50%
    02:00 +7°C° 0 mm 4 mps 756 mmHg 51%
    03:00 +6°C° 0 mm 4 mps 756 mmHg 52%
    04:00 +5°C° 0 mm 4 mps 756 mmHg 54%
    05:00 +5°C° 0 mm 4 mps 757 mmHg 53%
    06:00 +5°C° 0 mm 4 mps 758 mmHg 53%
    07:00 +6°C° 0 mm 4 mps 758 mmHg 52%
    08:00 +7°C° 0 mm 4 mps 759 mmHg 47%
    09:00 +8°C° 0 mm 4 mps 759 mmHg 42%
    10:00 +10°C° 0 mm 4 mps 760 mmHg 36%
    11:00 +11°C° 0 mm 4 mps 760 mmHg 35%
    12:00 +11°C° 0 mm 4 mps 760 mmHg 34%
    13:00 +12°C° 0 mm 4 mps 760 mmHg 33%
    14:00 +12°C° 0 mm 4 mps 760 mmHg 33%
    15:00 +12°C° 0 mm 3 mps 760 mmHg 34%
    16:00 +12°C° 0 mm 3 mps 760 mmHg 35%
    17:00 +12°C° 0 mm 2 mps 760 mmHg 37%
    18:00 +10°C° 0 mm 2 mps 760 mmHg 40%
    19:00 +11°C° 0 mm 1 mps 761 mmHg 42%
    20:00 +10°C° 0 mm 1 mps 761 mmHg 45%
    21:00 +8°C° 0 mm 2 mps 761 mmHg 49%
    22:00 +7°C° 0 mm 2 mps 762 mmHg 52%
    23:00 +7°C° 0 mm 1 mps 762 mmHg 54%

    27 March, Wednesday

    Time Temperature Precipitation Wind Pressure Humidity
    00:00 +6°C° 0 mm 1 mps 762 mmHg 55%
    01:00 +5°C° 0 mm 0 mps 762 mmHg 57%
    02:00 +4°C° 0 mm 0 mps 762 mmHg 57%
    03:00 +4°C° 0 mm 0 mps 762 mmHg 57%
    04:00 +4°C° 0 mm 0 mps 762 mmHg 57%
    05:00 +4°C° 0 mm 0 mps 762 mmHg 55%
    06:00 +5°C° 0 mm 0 mps 763 mmHg 53%
    07:00 +6°C° 0 mm 0 mps 763 mmHg 51%
    08:00 +8°C° 0 mm 1 mps 763 mmHg 47%
    09:00 +9°C° 0 mm 1 mps 763 mmHg 44%
    10:00 +9°C° 0 mm 2 mps 763 mmHg 40%
    11:00 +11°C° 0 mm 1 mps 763 mmHg 38%
    12:00 +12°C° 0 mm 1 mps 763 mmHg 36%
    13:00 +12°C° 0 mm 0 mps 763 mmHg 34%
    14:00 +13°C° 0 mm 1 mps 763 mmHg 33%
    15:00 +13°C° 0 mm 1 mps 763 mmHg 33%
    16:00 +13°C° 0 mm 1 mps 762 mmHg 33%
    17:00 +12°C° 0 mm 2 mps 763 mmHg 37%
    18:00 +10°C° 0 mm 2 mps 763 mmHg 41%
    19:00 +8°C° 0 mm 2 mps 763 mmHg 45%
    20:00 +8°C° 0 mm 2 mps 764 mmHg 48%
    21:00 +7°C° 0 mm 2 mps 764 mmHg 50%
    22:00 +7°C° 0 mm 2 mps 764 mmHg 52%
    23:00 +6°C° 0 mm 2 mps 764 mmHg 54%

    28 March, Thursday

    Time Temperature Precipitation Wind Pressure Humidity
    00:00 +6°C° 0 mm 2 mps 764 mmHg 56%
    01:00 +5°C° 0 mm 2 mps 764 mmHg 58%
    02:00 +5°C° 0 mm 2 mps 764 mmHg 60%
    03:00 +4°C° 0 mm 2 mps 765 mmHg 61%
    04:00 +4°C° 0 mm 2 mps 765 mmHg 63%
    05:00 +4°C° 0 mm 3 mps 765 mmHg 62%
    06:00 +4°C° 0 mm 3 mps 765 mmHg 61%
    07:00 +5°C° 0 mm 3 mps 765 mmHg 60%
    08:00 +6°C° 0 mm 4 mps 765 mmHg 54%
    09:00 +8°C° 0 mm 4 mps 765 mmHg 49%
    10:00 +11°C° 0 mm 4 mps 766 mmHg 43%
    11:00 +12°C° 0 mm 4 mps 765 mmHg 40%
    12:00 +13°C° 0 mm 4 mps 765 mmHg 37%
    13:00 +14°C° 0 mm 3 mps 765 mmHg 34%
    14:00 +14°C° 0 mm 3 mps 764 mmHg 35%
    15:00 +14°C° 0 mm 3 mps 764 mmHg 35%
    16:00 +14°C° 0 mm 3 mps 764 mmHg 36%
    17:00 +13°C° 0 mm 2 mps 764 mmHg 40%
    18:00 +12°C° 0 mm 2 mps 764 mmHg 45%
    19:00 +10°C° 0 mm 2 mps 764 mmHg 50%
    20:00 +10°C° 0 mm 1 mps 764 mmHg 51%
    21:00 +9°C° 0 mm 1 mps 764 mmHg 53%
    22:00 +9°C° 0 mm 1 mps 765 mmHg 54%
    23:00 +9°C° 0 mm 1 mps 765 mmHg 56%

    29 March, Friday

    Time Temperature Precipitation Wind Pressure Humidity
    00:00 +8°C° 0 mm 1 mps 765 mmHg 58%
    01:00 +8°C° 0 mm 1 mps 765 mmHg 59%
    02:00 +8°C° 0 mm 1 mps 765 mmHg 62%
    03:00 +7°C° 0 mm 1 mps 765 mmHg 64%
    04:00 +7°C° 0 mm 1 mps 765 mmHg 67%
    05:00 +7°C° 0 mm 1 mps 765 mmHg 67%
    06:00 +8°C° 0 mm 1 mps 765 mmHg 67%
    07:00 +8°C° 0 mm 1 mps 765 mmHg 67%
    08:00 +9°C° 0 mm 2 mps 765 mmHg 62%
    09:00 +12°C° 0 mm 2 mps 765 mmHg 56%
    10:00 +14°C° 0 mm 2 mps 765 mmHg 51%
    11:00 +15°C° 0 mm 2 mps 765 mmHg 47%
    12:00 +16°C° 0 mm 2 mps 765 mmHg 44%
    13:00 +17°C° 0 mm 2 mps 764 mmHg 40%
    14:00 +17°C° 0 mm 2 mps 764 mmHg 39%
    15:00 +17°C° 0 mm 2 mps 763 mmHg 39%
    16:00 +17°C° 0 mm 2 mps 763 mmHg 38%
    17:00 +15°C° 0 mm 1 mps 763 mmHg 42%
    18:00 +14°C° 0 mm 1 mps 763 mmHg 46%
    19:00 +11°C° 0 mm 0 mps 763 mmHg 50%
    20:00 +11°C° 0 mm 0 mps 763 mmHg 50%
    21:00 +11°C° 0 mm 1 mps 763 mmHg 51%
    22:00 +11°C° 0 mm 1 mps 763 mmHg 52%
    23:00 +10°C° 0 mm 1 mps 763 mmHg 54%
    Show more